MET993 - Jakarta to Hong Kong

Airbus A330-243
787MT
4 hrs 15 mins
1762 nm
Scheduled - SU | M | W | F | SA

Bid/PiRep Status

Bid was submitted on Jan 01 2017.

PiRep # 74567: Approved by Sean Doyle on January 2nd, 2017 15:14 UTC

Departure

Departing from
Jakarta (CGK)
Departure gate
Ramp
Scheduled Departure
GMT 0900
Local 1600
METAR WIII 260500Z 04006KT 9999 SCT021 31/26 Q1008 NOSIG
TAF TAF WIII 252300Z 2600/2706 30012KT 9999 SCT022 TEMPO 2608/2612 4000 -TSRA FEW018CB BKN020 BECMG 2612/2614 26005KT 4000 BR SCT020
  • No charts available

Arrival

Arriving at
Hong Kong (HKG)
Arrival gate
Ramp
Scheduled Arrival
GMT 1315
Local 2115
METAR VHHH 260500Z 32007KT 9999 FEW015 SCT045 14/08 Q1021 NOSIG
TAF TAF VHHH 252300Z 2600/2706 02010KT 7000 FEW010 SCT020 TX16/2606Z TX19/2706Z TN11/2600Z TEMPO 2600/2603 4000 BR -RA TEMPO 2600/2609 32010KT TEMPO 2609/2620 08010KT BECMG 2620/2622 08010KT TEMPO 2703/2706 32010KT

Route Map

Planning Resources

DKI P648 OSUKA M772 DULOP M771 DUMOL
AMBO1B AMBOY P648 OSUKA M772 DULOP Q1 CARSO V551 BETTY BETY2B
JAKARTA2 DEDNY B592 OSUKA M772 DUMOL DUMOL1A
WIII DKI ATOSO OSUKA ANIPU VSB TAMIB DARMU ASISU VAVUM DABGI DUM OL CH VHHH
AMBO1B AMBOY P648 OSUKA M772 DULOP Q1 CARSO
Route:
OFP Layout:
Units:
Detailed Navlog:
ETOPS Planning:
Plan Stepclimbs:
Runway Analysis:
Include NOTAMS:
FIR NOTAMS:
Flight Maps:

Return Flights

MET992
Airbus A330-243
0300 GMT

Popularity

Hub Current Bids PiReps this month Total PiReps
KMCI 0 0 2
KLAX 0 0 4
KBOS 0 0 0